FW1542 Weather Reports


Display with metric or nautical units.
time (UTC)temp
F
wind
direction
speed
MPH
gust
MPH
rain 1hr
in
rain 24hr
in
rain mn
in
humidity
%
barometer
mb
20260903234555 98 0 4.0 9.0 0.00 0.00 0.00 43 1009.1
20260903234527 98 64 4.0 9.0 0.00 0.00 0.00 44 1010.6
20260903233054 98 115 4.0 13.0 0.00 0.00 0.00 44 1009.1
20260903233033 98 69 4.0 13.0 0.00 0.00 0.00 44 1010.7
20260903231555 98 146 5.0 11.0 0.00 0.00 0.00 43 1009.1
20260903231526 98 140 6.0 10.0 0.00 0.00 0.00 43 1010.7
20260903230027 99 129 5.0 13.0 0.00 0.00 0.00 44 1010.6
20260903224604 98 0 4.0 13.0 0.00 0.00 0.00 43 1009.0
20260903224533 98 54 2.0 13.0 0.00 0.00 0.00 44 1010.5
20260903223102 99 128 5.0 12.0 0.00 0.00 0.00 45 1009.0
20260903223022 99 154 5.0 12.0 0.00 0.00 0.00 45 1010.6
20260903221558 100 116 3.0 13.0 0.00 0.00 0.00 43 1009.0
20260903221540 100 149 3.0 11.0 0.00 0.00 0.00 44 1010.7
20260903220058 100 0 2.0 9.0 0.00 0.00 0.00 44 1009.2
20260903220020 100 136 1.0 9.0 0.00 0.00 0.00 44 1010.7
20260903214602 100 122 4.0 10.0 0.00 0.00 0.00 44 1009.4
20260903214519 100 116 3.0 10.0 0.00 0.00 0.00 44 1010.9
20260903213100 101 36 5.0 9.0 0.00 0.00 0.00 43 1009.5
20260903213021 101 103 6.0 9.0 0.00 0.00 0.00 43 1011.0
20260903211556 101 132 5.0 12.0 0.00 0.00 0.00 43 1009.6
20260903211513 101 188 7.0 12.0 0.00 0.00 0.00 44 1011.1
20260903210055 100 0 4.0 10.0 0.00 0.00 0.00 43 1010.0
20260903210014 100 171 3.0 10.0 0.00 0.00 0.00 44 1011.5
20260903204556 100 196 3.0 12.0 0.00 0.00 0.00 45 1010.0
20260903204510 100 197 3.0 12.0 0.00 0.00 0.00 45 1011.7
20260903203059 100 155 4.0 10.0 0.00 0.00 0.00 45 1010.2
20260903203010 100 86 4.0 10.0 0.00 0.00 0.00 45 1011.8
20260903201558 99 163 5.0 10.0 0.00 0.00 0.00 45 1010.4
20260903201504 99 228 5.0 10.0 0.00 0.00 0.00 46 1012.0
20260903200057 98 142 5.0 13.0 0.00 0.00 0.00 48 1010.6
20260903200002 98 135 5.0 13.0 0.00 0.00 0.00 49 1012.1
20260903194559 98 156 6.0 13.0 0.00 0.00 0.00 48 1012.2
20260903194553 98 142 3.0 11.0 0.00 0.00 0.00 47 1010.8
20260903193100 98 128 6.0 13.0 0.00 0.00 0.00 47 1011.0
20260903193056 98 221 5.0 12.0 0.00 0.00 0.00 48 1012.7
20260903191554 98 112 2.0 10.0 0.00 0.00 0.00 49 1011.4
20260903190053 97 0 3.0 10.0 0.00 0.00 0.00 53 1011.7
20260903184556 97 181 3.0 9.0 0.00 0.00 0.00 53 1011.9
20260903184548 97 164 2.0 9.0 0.00 0.00 0.00 53 1013.3
20260903183055 96 184 3.0 9.0 0.00 0.00 0.00 55 1012.1
20260903183044 96 169 2.0 9.0 0.00 0.00 0.00 56 1013.6
20260903181553 95 0 2.0 13.0 0.00 0.00 0.00 57 1012.4
20260903181541 95 209 2.0 11.0 0.00 0.00 0.00 57 1014.2
20260903180116 95 231 2.0 10.0 0.00 0.00 0.00 59 1012.5
20260903180105 95 160 2.0 9.0 0.00 0.00 0.00 60 1014.2
20260903174557 94 153 6.0 11.0 0.00 0.00 0.00 60 1012.9
20260903174536 94 142 5.0 11.0 0.00 0.00 0.00 60 1014.5
20260903173058 93 176 4.0 13.0 0.00 0.00 0.00 61 1012.9
20260903173033 93 176 2.0 12.0 0.00 0.00 0.00 61 1014.7
20260903171554 92 110 1.0 10.0 0.00 0.00 0.00 66 1013.2
20260903171530 92 110 0.0 10.0 0.00 0.00 0.00 67 1014.8
20260903170059 92 163 2.0 9.0 0.00 0.00 0.00 66 1013.4
20260903170028 92 165 1.0 9.0 0.00 0.00 0.00 67 1014.9
20260903164601 91 234 3.0 9.0 0.00 0.00 0.00 66 1013.5
20260903164524 91 209 3.0 8.0 0.00 0.00 0.00 66 1015.0
20260903163056 90 207 2.0 8.0 0.00 0.00 0.00 69 1013.5
20260903163037 90 230 3.0 8.0 0.00 0.00 0.00 70 1015.2
20260903161551 90 182 3.0 8.0 0.00 0.00 0.00 69 1013.7
20260903161520 90 192 2.0 7.0 0.00 0.00 0.00 69 1015.2
20260903160107 89 178 3.0 9.0 0.00 0.00 0.00 71 1013.6
20260903160017 89 167 1.0 8.0 0.00 0.00 0.00 72 1015.1
20260903154554 88 199 2.0 8.0 0.00 0.00 0.00 72 1013.6
20260903154516 88 196 2.0 7.0 0.00 0.00 0.00 73 1015.1
20260903153054 87 0 4.0 9.0 0.00 0.00 0.00 74 1013.6
20260903153012 87 238 4.0 9.0 0.00 0.00 0.00 75 1015.2
20260903151556 85 166 3.0 8.0 0.00 0.00 0.00 79 1013.8
20260903151508 85 178 3.0 7.0 0.00 0.00 0.00 79 1015.1
20260903150058 84 249 3.0 11.0 0.00 0.00 0.00 80 1013.7
20260903150008 84 219 4.0 11.0 0.00 0.00 0.00 81 1015.3
20260903144554 84 201 2.0 11.0 0.00 0.00 0.00 80 1013.8
20260903144507 84 182 2.0 8.0 0.00 0.00 0.00 80 1015.3
20260903143101 84 196 4.0 11.0 0.00 0.00 0.00 82 1013.7
20260903143011 84 188 5.0 10.0 0.00 0.00 0.00 82 1015.3
20260903141557 82 170 3.0 8.0 0.00 0.00 0.00 84 1013.8
20260903141506 82 184 2.0 8.0 0.00 0.00 0.00 84 1015.3
20260903140057 81 171 3.0 8.0 0.00 0.00 0.00 85 1013.7
20260903140005 81 263 3.0 7.0 0.00 0.00 0.00 86 1015.3
20260903134554 81 126 1.0 7.0 0.00 0.00 0.00 87 1014.0
20260903134505 81 89 1.0 7.0 0.00 0.00 0.00 87 1015.5
20260903133051 80 167 2.0 7.0 0.00 0.00 0.00 87 1013.9
20260903133004 80 181 2.0 7.0 0.00 0.00 0.00 88 1015.4
20260903131557 80 175 2.0 8.0 0.00 0.00 0.00 88 1014.0
20260903131503 80 151 1.0 8.0 0.00 0.00 0.00 88 1015.3
20260903130116 79 215 3.0 7.0 0.00 0.00 0.00 88 1013.8
20260903130011 79 163 3.0 7.0 0.00 0.00 0.00 89 1015.2
20260903124550 79 178 1.0 9.0 0.00 0.00 0.00 89 1013.6
20260903124503 79 175 1.0 8.0 0.00 0.00 0.00 89 1015.2
20260903123106 79 167 0.0 5.0 0.00 0.00 0.00 89 1015.1
20260903123101 79 0 0.0 9.0 0.00 0.00 0.00 89 1013.6
20260903121600 79 186 1.0 6.0 0.00 0.00 0.00 89 1015.0
20260903121557 79 207 1.0 6.0 0.00 0.00 0.00 89 1013.4
20260903120106 79 178 0.0 5.0 0.00 0.00 0.00 89 1014.9
20260903120058 79 0 0.0 7.0 0.00 0.00 0.00 88 1013.2
20260903114603 79 219 1.0 9.0 0.00 0.00 0.00 88 1013.3
20260903114600 79 210 2.0 7.0 0.00 0.00 0.00 89 1014.9
20260903113059 80 0 1.0 7.0 0.00 0.00 0.00 88 1013.2
20260903113056 79 175 1.0 7.0 0.00 0.00 0.00 88 1014.8
20260903111613 80 202 2.0 9.0 0.00 0.00 0.00 88 1013.1
20260903111610 80 165 2.0 8.0 0.00 0.00 0.00 88 1014.7
20260903110112 80 193 0.0 7.0 0.00 0.00 0.00 88 1014.8
20260903104556 80 167 2.0 11.0 0.00 0.00 0.00 87 1013.4
20260903104552 80 167 2.0 6.0 0.00 0.00 0.00 88 1014.9
20260903103056 80 0 2.0 9.0 0.00 0.00 0.00 87 1013.2
20260903103048 80 130 0.0 6.0 0.00 0.00 0.00 88 1014.8
20260903101604 80 223 2.0 9.0 0.00 0.00 0.00 87 1013.1
20260903101545 80 210 2.0 8.0 0.00 0.00 0.00 88 1014.7
20260903100053 80 161 2.0 9.0 0.00 0.00 0.00 87 1013.1
20260903100045 80 176 3.0 7.0 0.00 0.00 0.00 88 1014.7
20260903094559 80 0 2.0 7.0 0.00 0.00 0.00 87 1013.2
20260903094552 80 128 2.0 7.0 0.00 0.00 0.00 88 1014.8
20260903093056 80 162 3.0 11.0 0.00 0.00 0.00 87 1013.2
20260903093043 80 146 3.0 9.0 0.00 0.00 0.00 87 1014.7
20260903091553 80 188 2.0 8.0 0.00 0.00 0.00 87 1013.1
20260903091541 80 183 3.0 8.0 0.00 0.00 0.00 87 1014.8
20260903090050 80 169 2.0 9.0 0.00 0.00 0.00 87 1012.9
20260903090042 80 181 1.0 8.0 0.00 0.00 0.00 88 1014.6
20260903084557 80 142 3.0 8.0 0.00 0.00 0.00 87 1013.1
20260903084541 80 142 3.0 6.0 0.00 0.00 0.00 88 1014.8
20260903083059 80 163 3.0 9.0 0.00 0.00 0.00 87 1013.2
20260903083041 80 155 3.0 9.0 0.00 0.00 0.00 88 1014.8
20260903081553 80 163 3.0 9.0 0.00 0.00 0.00 87 1013.1
20260903081545 80 162 2.0 9.0 0.00 0.00 0.00 87 1014.7
20260903080054 81 173 2.0 9.0 0.00 0.00 0.00 85 1012.9
20260903080038 81 169 3.0 9.0 0.00 0.00 0.00 86 1014.7
20260903074607 81 148 3.0 7.0 0.00 0.00 0.00 84 1013.1
20260903074540 81 149 3.0 8.0 0.00 0.00 0.00 84 1014.8
20260903073055 81 174 2.0 9.0 0.00 0.00 0.00 83 1013.1
20260903073038 81 163 3.0 9.0 0.00 0.00 0.00 83 1014.7
20260903071556 82 196 5.0 9.0 0.00 0.00 0.00 82 1013.2
20260903071534 82 196 4.0 9.0 0.00 0.00 0.00 82 1014.8
20260903070052 82 84 2.0 10.0 0.00 0.00 0.00 79 1013.3
20260903070036 82 84 2.0 9.0 0.00 0.00 0.00 80 1015.0
20260903064601 82 125 6.0 12.0 0.00 0.00 0.00 79 1013.4
20260903064530 82 125 5.0 12.0 0.00 0.00 0.00 79 1015.1
20260903063054 82 175 4.0 14.0 0.00 0.00 0.00 78 1013.3
20260903063028 82 179 5.0 14.0 0.00 0.00 0.00 78 1015.1
20260903061559 83 142 3.0 10.0 0.00 0.00 0.00 78 1013.4
20260903061536 83 146 3.0 10.0 0.00 0.00 0.00 78 1015.0
20260903060051 83 166 4.0 12.0 0.00 0.00 0.00 77 1013.2
20260903060024 83 141 4.0 11.0 0.00 0.00 0.00 78 1015.0
20260903054557 84 153 5.0 16.0 0.00 0.00 0.00 77 1013.0
20260903054540 84 189 4.0 16.0 0.00 0.00 0.00 77 1014.7
20260903053108 84 136 7.0 15.0 0.00 0.00 0.00 76 1013.2
20260903053019 84 107 6.0 15.0 0.00 0.00 0.00 76 1014.9
20260903051603 85 169 4.0 11.0 0.00 0.00 0.00 74 1013.1
20260903051517 85 170 4.0 9.0 0.00 0.00 0.00 74 1014.8
20260903050107 85 136 3.0 13.0 0.00 0.00 0.00 73 1013.0
20260903050014 85 136 3.0 11.0 0.00 0.00 0.00 73 1014.6
20260903044558 86 144 6.0 14.0 0.00 0.00 0.00 70 1013.0
20260903044513 86 144 6.0 14.0 0.00 0.00 0.00 70 1014.5
20260903043051 87 127 5.0 13.0 0.00 0.00 0.00 66 1012.9
20260903043011 87 154 6.0 12.0 0.00 0.00 0.00 67 1014.3
20260903041604 88 171 8.0 21.0 0.00 0.00 0.00 64 1013.0
20260903041514 88 148 8.0 19.0 0.00 0.00 0.00 64 1014.3
20260903040059 88 118 5.0 19.0 0.00 0.00 0.00 60 1012.8
20260903040011 88 186 6.0 19.0 0.00 0.00 0.00 60 1014.2
20260903034554 89 109 9.0 19.0 0.00 0.00 0.00 64 1012.6
20260903034510 89 172 9.0 19.0 0.00 0.00 0.00 65 1014.0
20260903033107 89 186 6.0 13.0 0.00 0.00 0.00 63 1012.1
20260903033009 89 123 6.0 13.0 0.00 0.00 0.00 63 1013.6
20260903031555 90 143 6.0 15.0 0.00 0.00 0.00 62 1011.8
20260903031508 90 157 6.0 15.0 0.00 0.00 0.00 62 1013.5
20260903030057 89 165 6.0 11.0 0.00 0.00 0.00 57 1011.7
20260903030018 89 134 7.0 11.0 0.00 0.00 0.00 57 1013.2
20260903024552 89 123 2.0 4.0 0.00 0.00 0.00 55 1011.3
20260903024508 89 123 2.0 4.0 0.00 0.00 0.00 56 1013.0
20260903023057 89 126 2.0 5.0 0.00 0.00 0.00 56 1011.0
20260903023010 89 141 3.0 5.0 0.00 0.00 0.00 56 1012.8
20260903021608 89 128 1.0 3.0 0.00 0.00 0.00 54 1011.0
20260903021509 89 129 1.0 3.0 0.00 0.00 0.00 55 1012.7
20260903020056 90 130 1.0 3.0 0.00 0.00 0.00 54 1010.9
20260903020007 90 130 1.0 3.0 0.00 0.00 0.00 54 1012.5
20260903014554 90 130 1.0 3.0 0.00 0.00 0.00 52 1010.6
20260903014507 90 130 1.0 3.0 0.00 0.00 0.00 53 1012.3
20260903013104 91 109 1.0 3.0 0.00 0.00 0.00 52 1010.5
20260903013005 91 109 1.0 3.0 0.00 0.00 0.00 52 1012.3
20260903011559 92 144 1.0 2.0 0.00 0.00 0.00 49 1010.5
20260903011507 92 144 1.0 2.0 0.00 0.00 0.00 49 1012.2
20260903010111 94 144 0.0 3.0 0.00 0.00 0.00 48 1010.4
20260903010004 94 144 1.0 3.0 0.00 0.00 0.00 48 1012.1
20260903004558 95 147 2.0 4.0 0.00 0.00 0.00 46 1010.3
20260903004504 95 147 1.0 4.0 0.00 0.00 0.00 47 1012.1
20260903003050 96 0 0.0 0.0 0.00 0.00 0.00 45 1010.4
20260903003002 96 190 0.0 0.0 0.00 0.00 0.00 45 1012.2
20260903001603 97 0 0.0 5.0 0.00 0.00 0.00 44 1010.4
20260903001501 97 145 0.0 3.0 0.00 0.00 0.00 44 1012.2
20260903000107 97 138 4.0 8.0 0.00 0.00 0.00 42 1012.3
20260903000104 97 152 3.0 8.0 0.00 0.00 0.00 42 1010.5